Location: JKWMA (FRAC)
(33.1803°N, 84.5512°W)
Time: 05:59:55
(UTC-04:00)

Hubble Space Telescope - Pass Details

Date: 27 March 2019
Orbit: 536 x 540 km, 28.5° (Epoch: 16 October)

Event Time Altitude Azimuth Distance (km) Brightness Sun altitude
Rises 22:04:22 0° 261° (W) 2,674 5.2 -27.1°
Reaches altitude 10° 22:06:42 10° 254° (WSW) 1,783 4.0 -27.5°
Enters shadow 22:08:34 24° 240° (WSW) 1,137 2.7 -27.9°
